RH
24 26 27 28 29 30 32 33 33 33 34 34 35 37 38 38 38 38 41 43 39 34 37 38 38 41 41 35 30 29 29 30 27 23 22 22 20 18 17 15 13 11 9 8 8 8 7 7 7 7 7 8 9 9 10 11 11 11 15 16 16 19 18 18 21 20 18 18 19 18 18 22 20 17 17 16 16 16 16 15 15 15 14 12 12 12 13 13
27 28 28 29 30 31 32 33 33 33 34 35 35 37 38 39 40 39 40 41 38 33 31 30 28 28 28 26 25 26 27 27 23 21 21 20 18 16 14 11 9 7 6 5 6 5 5 6 6 6 6 8 9 9 9 10 10 13 18 16 18 22 19 19 21 20 20 18 19 18 18 20 18 16 16 15 15 15 16 14 13 14 11 10 11 11 12 12
27 28 28 29 30 31 32 32 32 33 32 32 32 33 34 35 36 37 38 37 34 31 29 26 24 23 22 22 22 23 24 23 20 20 19 17 14 12 9 7 6 5 5 5 6 6 6 7 7 7 7 7 8 9 9 10 11 13 15 17 23 25 22 19 20 20 18 17 18 17 16 17 16 15 15 16 16 15 16 15 13 12 10 9 11 12 12 12
26 29 29 29 31 31 32 31 31 30 29 29 30 32 33 33 33 33 35 35 32 30 28 25 23 23 22 22 22 22 21 21 19 19 18 15 12 8 6 5 5 5 5 6 6 7 7 8 8 7 7 8 8 9 10 11 12 14 17 21 25 24 22 19 17 17 16 16 16 15 16 15 13 14 14 15 15 14 13 12 12 11 9 9 10 12 13 13
26 29 30 30 31 30 30 29 27 26 25 27 30 31 31 31 31 31 31 29 27 27 27 26 24 24 23 22 22 21 20 19 17 16 15 12 9 7 6 5 5 5 5 6 7 7 7 7 7 7 8 9 11 12 14 16 17 19 21 23 22 20 19 16 15 15 15 15 15 15 15 13 11 12 12 14 16 15 12 10 10 10 10 10 10 10 11 11
25 30 31 30 30 29 28 26 23 22 22 25 27 28 28 27 27 27 26 24 23 24 25 25 24 23 21 21 22 18 17 16 14 13 11 10 8 7 7 6 6 6 6 7 7 8 8 9 9 10 12 14 17 18 18 20 19 20 22 21 19 17 16 15 15 16 15 15 14 14 13 12 12 13 12 13 15 14 11 10 10 9 9 10 10 10 10 9
22 26 28 27 28 28 25 22 19 19 21 23 25 25 25 25 24 24 23 22 22 22 22 22 21 21 19 20 20 15 14 13 11 10 9 8 8 7 7 7 7 7 8 9 10 12 12 13 14 15 17 19 21 19 18 19 18 18 20 20 17 16 15 15 16 17 15 14 13 13 13 14 14 14 14 13 13 11 10 10 10 10 10 11 11 11 11 11
17 20 22 23 24 24 21 18 17 19 21 22 22 22 22 22 22 22 22 21 21 21 20 20 20 18 16 16 14 12 12 11 9 8 8 8 8 8 8 9 10 10 12 14 15 15 15 15 16 15 16 16 16 16 16 15 16 18 18 17 16 16 16 15 16 14 12 13 13 14 16 15 14 15 15 13 11 10 11 12 12 12 12 13 13 13 13 13
13 16 19 20 20 21 19 17 17 19 21 22 22 21 20 20 20 20 20 19 19 19 19 18 16 13 12 11 10 10 10 9 8 8 8 8 9 10 11 12 14 14 15 15 14 13 13 13 12 12 12 13 13 14 14 13 14 16 16 15 15 15 15 14 14 12 12 12 12 14 15 14 13 14 15 12 10 11 12 13 13 13 13 14 14 14 14 14
11 13 16 17 17 19 18 16 16 19 20 21 21 20 19 18 18 18 17 17 17 16 15 13 12 10 9 8 8 10 10 9 9 10 11 11 13 14 15 15 15 14 13 12 10 10 10 10 10 11 11 12 13 14 15 14 13 15 16 15 16 15 13 13 12 12 12 11 11 13 14 13 12 14 15 12 10 12 13 12 12 13 14 15 14 14 14 14
11 11 12 14 15 16 16 16 16 17 19 20 20 18 17 16 15 15 15 15 14 13 13 11 10 9 8 8 9 10 10 11 11 12 13 14 15 15 14 13 12 11 10 10 10 10 11 11 11 11 12 13 14 15 15 13 13 15 14 14 17 14 11 12 12 12 12 11 11 12 14 13 14 17 15 12 11 12 12 12 12 14 15 15 15 15 14 14
11 10 11 12 13 14 14 14 15 16 18 18 18 16 15 15 14 14 13 13 11 11 11 10 9 9 9 10 10 11 11 12 14 14 14 14 14 12 11 11 11 11 11 12 12 12 12 12 11 11 11 12 13 13 13 13 14 14 13 14 17 15 12 12 12 12 12 12 11 11 12 11 14 18 14 11 12 12 12 12 13 15 15 15 15 14 14 13
10 10 10 11 11 12 13 13 13 15 16 15 16 15 15 14 13 12 11 11 11 11 11 11 11 10 10 10 11 12 13 14 14 14 12 11 11 10 10 11 12 12 13 13 13 13 11 11 11 10 10 11 12 11 11 12 12 13 15 18 19 15 11 11 13 13 12 12 11 11 12 10 13 15 12 12 13 13 13 13 14 15 15 14 14 13 13 13
10 10 10 10 10 11 12 13 13 14 14 15 15 15 14 12 12 11 11 12 12 12 13 12 11 11 10 11 12 13 14 14 13 11 10 10 11 11 12 13 13 13 13 13 13 11 11 10 8 9 9 10 11 11 15 16 14 15 17 22 22 14 11 13 13 14 13 12 11 11 15 14 13 13 12 13 14 15 15 16 16 15 15 14 13 12 12 14
9 10 10 10 11 12 13 13 14 14 14 15 14 14 12 11 12 13 13 13 12 12 13 12 12 12 12 13 13 13 12 11 11 11 11 12 13 13 12 11 11 11 11 12 11 10 11 9 7 9 9 10 11 15 19 20 22 22 15 17 22 15 14 15 14 16 16 13 12 12 17 18 17 16 12 12 15 15 15 18 18 16 16 15 13 12 12 13
10 11 11 12 13 14 14 14 14 14 14 14 14 13 13 13 14 14 13 12 12 12 13 14 14 14 14 13 12 11 10 10 11 12 13 13 13 12 11 10 9 9 9 10 9 9 9 8 8 10 10 13 17 20 23 22 23 24 16 14 20 18 17 15 12 18 18 14 15 14 17 18 17 16 13 13 16 15 15 18 19 18 18 18 17 15 14 13
12 13 14 14 14 15 15 14 14 13 13 13 13 14 14 14 14 14 13 13 14 14 14 14 14 13 12 11 11 11 11 11 11 11 12 11 11 10 9 8 8 9 9 9 9 8 8 8 9 10 13 18 21 20 21 20 18 22 21 19 21 19 19 16 12 17 19 16 17 18 18 18 18 18 16 15 16 14 16 18 19 21 20 20 20 19 18 18
15 15 15 15 15 15 14 14 13 13 13 13 13 13 13 14 14 15 15 15 15 14 14 12 11 12 11 11 13 12 11 11 9 9 9 9 9 8 8 8 8 9 10 10 8 8 9 9 11 14 15 18 20 19 17 15 14 19 22 22 23 22 20 18 15 17 19 18 18 19 18 18 19 20 18 16 16 16 18 20 22 23 23 23 23 22 22 22
15 15 15 14 14 14 14 14 14 14 13 13 13 14 15 15 15 15 14 14 13 13 14 12 12 14 13 13 13 11 9 9 7 6 6 7 8 7 8 9 9 9 10 12 11 11 11 11 14 17 16 16 20 21 18 16 17 20 22 22 24 23 21 19 18 20 21 19 19 19 18 19 21 21 19 16 18 20 21 22 23 23 24 24 24 24 23 24
15 14 14 14 13 13 13 14 14 14 14 15 17 17 16 16 15 14 12 12 12 13 14 14 14 14 13 12 11 8 7 7 6 5 6 7 7 7 7 8 9 10 14 18 16 13 13 15 17 17 17 18 19 21 21 21 22 22 24 26 26 25 22 17 17 22 23 20 21 23 22 23 23 21 18 17 19 21 22 23 24 24 24 24 25 25 24 24
14 13 13 13 13 13 14 14 15 16 17 17 17 15 14 13 14 13 12 12 12 13 13 13 14 13 12 10 9 7 6 6 6 5 6 7 7 8 8 10 13 13 17 22 18 14 13 16 17 16 18 19 21 24 24 24 25 25 26 27 25 23 20 15 16 22 22 20 21 23 23 22 22 21 19 19 20 21 22 24 26 26 26 26 26 26 24 24
14 14 15 15 15 16 16 16 16 16 15 14 13 13 13 13 14 14 13 13 12 12 11 10 9 10 10 9 8 8 7 7 7 5 6 6 6 9 9 13 17 17 20 20 17 18 18 15 16 19 21 22 24 27 25 24 26 26 25 24 22 20 19 17 19 23 22 20 22 24 24 22 21 21 21 21 21 24 25 26 27 28 27 26 26 26 26 25
16 17 18 17 16 15 15 14 13 12 12 12 12 13 13 14 14 13 12 11 10 9 9 8 6 8 9 9 9 8 7 9 9 6 7 7 7 10 10 13 18 19 22 20 16 18 17 14 17 21 22 19 20 24 24 23 24 23 22 21 19 20 21 19 19 22 22 22 25 25 24 23 20 20 21 22 22 26 29 29 28 28 28 29 28 28 28 27
18 18 17 15 14 13 12 12 12 13 13 13 13 12 12 12 12 11 10 9 9 8 7 7 7 7 9 9 9 9 8 9 10 8 7 8 7 10 11 13 17 18 21 23 19 17 14 15 19 23 24 18 16 22 23 22 22 22 22 21 19 21 23 21 20 22 21 23 26 23 21 21 18 21 24 22 23 25 28 29 29 29 29 31 31 31 31 31
16 15 14 14 13 13 13 13 14 14 13 13 12 11 11 12 12 10 10 11 9 6 7 7 7 8 8 9 9 10 9 7 9 8 7 8 7 10 12 12 13 15 19 23 20 17 16 17 19 20 23 22 18 19 21 22 23 22 22 21 20 22 24 23 23 23 19 20 23 21 24 23 18 22 27 26 25 25 24 25 28 29 29 30 32 32 33 35
16 16 15 15 15 15 15 15 14 13 13 12 11 11 12 13 14 12 13 17 12 6 7 7 7 9 8 8 8 9 10 8 7 7 7 8 7 10 12 12 13 14 18 22 19 17 18 19 20 20 21 23 19 18 20 23 24 21 21 22 23 25 24 22 24 22 18 18 20 21 25 25 20 23 28 28 27 28 26 26 27 29 31 33 35 35 36 37
17 16 15 15 14 14 14 14 13 12 12 12 12 13 12 13 14 12 15 19 13 7 8 8 7 8 8 8 7 8 10 8 7 7 7 8 8 8 11 14 15 14 19 22 18 16 18 20 23 24 24 23 20 18 20 23 22 19 21 24 25 23 21 22 23 23 23 21 21 24 26 26 24 24 28 28 28 30 30 29 29 30 32 35 37 37 37 38
16 15 14 14 13 13 13 12 12 12 12 12 12 11 11 13 12 12 16 16 10 8 9 8 7 7 7 7 6 8 9 8 8 8 7 9 9 9 11 14 15 16 19 20 15 15 19 20 22 24 24 22 19 18 21 24 22 20 23 25 24 23 23 25 26 28 31 24 18 22 25 27 25 22 27 29 29 31 33 33 34 34 35 36 38 38 38 39
15 14 14 13 13 12 12 12 11 11 11 12 11 10 11 11 9 13 18 13 8 9 8 8 8 7 7 8 8 8 8 9 10 9 8 9 10 10 12 14 15 18 19 17 14 15 18 20 22 24 22 19 21 22 24 25 21 20 23 22 21 25 27 27 28 30 30 25 20 20 22 25 23 23 30 32 33 37 38 39 38 37 38 39 40 41 41 42
13 13 13 13 13 12 12 11 11 11 12 12 11 10 11 10 14 19 18 11 8 9 8 7 8 9 11 12 11 10 10 11 10 10 10 10 11 11 13 13 15 19 21 19 17 17 19 23 25 25 22 21 24 23 23 25 23 21 23 21 16 20 26 29 29 26 22 22 20 18 21 24 26 33 38 38 41 46 46 44 43 42 43 45 46 47 47 49
12 12 12 12 11 11 11 10 10 10 11 10 9 10 9 12 20 20 14 10 9 9 9 11 13 15 16 16 13 12 15 13 12 13 14 14 15 14 15 15 16 20 21 20 20 21 21 23 23 23 22 22 23 21 20 24 24 22 23 21 16 16 22 27 30 25 19 19 18 19 24 26 30 42 45 43 46 50 52 52 50 50 50 51 52 52 53 56
11 11 10 11 10 10 10 9 10 9 9 9 8 9 10 14 17 15 14 13 9 9 12 13 17 18 19 18 14 14 17 15 13 15 17 19 21 20 19 20 18 18 19 19 21 21 21 20 18 20 21 21 20 18 18 21 22 22 23 22 24 29 28 25 27 27 25 20 17 21 28 30 35 46 48 48 50 50 53 56 56 56 57 57 58 58 60 62
9 9 9 10 9 9 9 8 9 7 7 8 7 9 14 15 12 12 17 14 8 11 14 16 20 20 17 16 14 15 16 14 13 15 17 19 22 22 22 24 21 17 17 20 22 22 23 21 18 18 19 20 19 18 17 18 19 23 26 25 30 40 39 32 29 32 32 25 18 22 31 37 42 48 48 48 52 53 56 58 60 62 63 63 63 63 65 67
8 8 8 8 8 8 7 7 7 7 7 6 7 11 13 11 10 11 14 15 14 16 17 20 20 16 15 14 14 16 16 14 14 15 18 19 21 22 22 23 24 21 21 21 23 24 23 21 19 16 17 18 19 20 20 20 21 25 28 28 30 35 39 42 40 39 39 33 26 25 32 39 43 47 49 49 51 56 60 62 66 67 67 70 70 69 69 68
7 7 7 7 7 7 6 6 6 7 6 4 9 15 12 8 11 13 13 15 18 19 19 19 16 14 15 16 17 16 13 14 16 15 18 19 20 21 21 23 25 25 24 23 24 26 24 21 18 17 17 17 19 22 22 20 20 25 29 28 28 30 35 43 42 40 44 49 45 35 33 39 43 43 46 49 51 58 65 68 70 68 67 70 71 68 65 62
7 6 6 6 6 6 6 6 6 7 6 5 9 15 14 11 13 15 16 17 19 20 19 17 15 16 17 17 20 18 13 15 16 15 16 18 20 22 23 25 26 27 26 25 26 27 25 21 18 18 19 18 19 21 22 20 19 24 26 23 25 30 34 43 47 45 49 58 53 41 37 41 45 47 49 52 56 61 66 67 65 60 56 61 68 70 67 64
6 5 5 5 5 5 6 5 6 5 4 6 12 15 16 15 14 16 19 20 20 21 19 16 13 14 16 17 19 18 15 15 15 14 15 17 19 21 24 25 27 29 28 27 27 26 26 23 20 20 20 18 18 18 20 23 23 25 26 25 28 32 34 42 55 58 60 63 54 43 41 41 45 52 54 55 58 59 61 60 55 49 47 56 67 68 64 61
5 5 5 5 5 5 5 5 6 5 4 10 19 19 17 17 16 18 21 21 22 22 19 15 11 12 16 16 16 19 19 16 16 16 16 17 17 20 26 26 26 30 30 27 26 26 28 27 22 21 20 18 18 17 18 22 26 27 27 29 33 37 40 43 52 61 68 71 61 51 46 41 46 56 58 60 63 61 58 53 49 48 49 56 61 57 52 52
6 5 5 6 5 5 6 5 4 4 6 15 23 21 18 19 18 19 22 22 22 21 18 15 13 14 17 16 16 21 22 19 19 20 16 16 18 20 26 26 25 28 29 27 26 27 29 29 24 20 19 19 18 18 18 20 25 27 29 34 35 39 45 46 48 54 64 73 73 67 58 49 54 63 64 66 66 60 57 57 59 63 58 52 51 47 46 46
5 5 5 6 6 6 5 4 5 9 13 18 21 20 18 20 19 19 22 23 21 18 16 17 17 15 17 18 18 21 25 24 24 22 18 19 20 21 26 29 28 29 29 27 27 29 29 28 25 19 17 18 18 19 20 21 25 29 34 42 42 41 44 45 45 47 59 75 81 81 73 58 56 62 62 65 64 61 65 71 75 74 62 49 43 41 40 41
5 6 6 5 6 5 4 6 11 18 22 21 19 20 20 20 18 18 20 21 20 17 16 19 19 17 18 19 18 22 26 27 28 25 23 23 20 19 26 30 29 30 30 28 29 30 29 30 29 24 19 18 19 19 21 24 30 35 41 47 49 50 52 57 59 54 60 75 79 84 83 62 53 60 64 67 66 65 74 79 78 73 59 46 41 39 38 42
6 8 7 5 6 5 4 11 17 20 23 21 18 19 21 20 16 16 17 18 18 17 16 18 21 22 22 21 22 26 27 28 28 25 23 24 21 20 26 31 30 30 29 29 31 30 30 31 31 26 21 19 20 22 28 33 35 38 43 47 50 55 58 64 69 63 62 65 65 77 80 59 53 66 70 65 65 73 84 85 79 69 52 39 37 38 40 46
7 8 6 5 6 4 6 14 18 18 21 20 18 18 18 17 15 15 17 18 18 17 17 19 20 21 22 24 25 26 25 25 26 23 23 27 26 25 29 30 29 30 29 29 31 29 29 32 30 24 19 16 17 23 31 35 36 40 45 45 49 56 60 62 65 65 66 64 65 79 77 56 57 70 67 61 68 83 89 80 67 54 39 33 39 45 48 54
6 7 6 5 5 4 8 15 17 20 21 17 16 17 16 16 16 17 18 20 21 21 20 21 21 20 23 27 28 27 25 22 22 23 26 27 26 28 31 30 30 31 30 29 30 29 29 31 33 31 29 24 21 23 26 28 34 45 49 46 47 53 58 61 62 66 70 64 66 82 81 61 58 64 59 58 70 80 77 62 49 40 35 38 47 53 58 64
6 6 5 5 5 5 10 14 15 20 23 18 17 18 16 16 16 17 19 20 21 23 21 20 21 24 26 28 30 32 30 23 21 25 28 27 28 30 30 30 32 34 33 34 33 31 30 31 34 37 38 38 37 35 34 33 37 46 51 50 51 53 56 60 63 71 76 68 66 79 83 69 60 61 60 62 69 70 59 46 38 37 42 50 56 59 65 72
6 7 7 7 6 6 10 10 10 17 21 20 19 17 16 17 15 15 18 19 19 21 21 21 22 24 26 29 32 35 34 27 25 28 30 30 29 29 28 31 33 33 34 36 35 34 35 36 37 38 36 39 41 37 36 39 43 48 54 56 56 57 60 63 69 75 79 78 75 75 76 75 69 64 62 63 65 61 49 39 40 45 53 60 64 68 73 77
8 11 11 10 7 8 11 11 11 15 17 18 19 17 19 21 18 16 17 18 19 20 21 23 24 23 26 30 31 32 32 29 27 26 28 31 32 28 27 32 34 32 32 36 36 36 36 36 37 39 36 35 38 35 37 45 50 52 56 58 59 61 64 68 76 78 78 84 82 70 72 81 75 61 57 61 61 52 41 41 50 56 61 66 71 74 76 79
9 11 11 10 10 12 15 13 14 16 17 20 23 20 21 24 21 19 19 18 19 19 18 20 23 27 32 34 31 30 31 29 27 26 28 32 34 31 30 32 33 32 32 34 35 34 35 35 37 38 37 36 38 39 43 48 49 50 54 56 58 63 68 74 79 78 78 86 85 76 78 80 65 52 55 60 55 45 41 49 58 60 63 70 74 75 75 80
9 10 10 11 12 15 16 15 14 17 19 23 25 23 23 23 20 21 24 22 20 20 19 18 21 30 38 39 34 30 31 29 28 30 31 32 33 33 33 32 32 32 34 36 36 33 33 36 38 39 38 38 40 43 45 46 47 49 53 55 57 61 67 72 75 75 77 82 81 77 73 60 48 51 58 54 44 39 44 53 57 59 64 70 72 73 77 84
8 9 9 11 13 15 16 15 15 19 22 23 22 22 24 24 21 22 26 24 20 21 22 23 26 33 40 42 38 33 30 28 28 30 32 33 35 36 35 33 34 37 38 41 42 36 30 32 36 40 39 35 36 41 43 43 45 49 52 54 56 58 60 64 71 76 80 80 72 64 56 46 44 53 54 44 37 38 45 53 56 59 63 68 71 76 84 91
7 7 7 10 15 17 16 15 18 23 26 24 23 22 24 24 25 27 27 24 22 23 26 29 32 37 40 41 39 36 31 30 31 32 32 33 35 35 33 34 40 42 41 43 45 40 37 36 37 42 43 35 32 38 40 39 44 51 55 57 59 61 60 62 70 76 75 72 62 53 51 51 52 54 50 41 37 40 48 55 58 60 62 68 77 83 87 91
8 8 7 10 16 19 19 19 21 23 22 21 24 25 24 25 28 29 24 22 25 27 30 33 34 35 37 35 32 31 31 33 35 36 37 39 38 37 37 40 43 44 44 45 45 43 44 46 45 49 51 41 35 39 40 38 41 48 54 59 64 66 62 58 61 63 58 55 55 52 53 54 52 50 50 47 44 46 53 59 63 67 69 73 83 89 90 90